Regional Weather Roundup
Issued by NWS

Home | Current Version | Previous Version | Text Only | Print | Product List | Glossary On
Versions: 1 2 3 4 5 6 7 8 9 10 11 12 13 14 15 16 17 18 19 20 21 22 23 24 25 26 27 28 29 30 31 32 33 34 35 36 37 38 39 40 41 42 43 44 45 46 47 48 49 50
000
ASUS43 KMKX 251259
RWRWI

WISCONSIN REGIONAL WEATHER ROUNDUP
NATIONAL WEATHER SERVICE MILWAUKEE/SULLIVAN WI
800 AM CDT FRI JUL 25 2014

NOTE: "FAIR" INDICATES FEW OR NO CLOUDS BELOW 12,000 FEET WITH NO
SIGNIFICANT WEATHER AND/OR OBSTRUCTIONS TO VISIBILITY.

WIZ001-002-006>008-014>016-023>028-251400-
NORTHWEST WISCONSIN

CITY           SKY/WX    TMP DP  RH WIND       PRES   REMARKS
SUPERIOR ARPT  CLOUDY    57  55  95 NE3       29.81F
ASHLAND        CLOUDY    66  61  84 VRB6      29.84F
HAYWARD        CLOUDY    64  61  90 S9        29.84F
SIREN          LGT RAIN  64  62  93 CALM      29.86R
RICE LAKE      CLOUDY    65  58  77 S6        29.88R
LADYSMITH      CLOUDY    64  59  83 SE7       29.88F
EAU CLAIRE     NOT AVBL
MENOMONIE      RAIN      64  61  90 SW6       29.88R
NEW RICHMOND   RAIN      63  62  97 S10       29.84R
OSCEOLA        RAIN      64  64  99 S7        29.87R
$$

WIZ003>005-009-010-017-018-251400-
NORTH CENTRAL WISCONSIN

CITY           SKY/WX    TMP DP  RH WIND       PRES   REMARKS
WOODRUFF       CLOUDY    62  59  90 S12       29.95F
RHINELANDER    CLOUDY    61  59  93 S7        29.97S
EAGLE RIVER    LGT RAIN  60  59  96 CALM      29.94F
LAND O LAKES   PTSUNNY   63  58  84 SW3       29.94F
PHILLIPS       CLOUDY    63  59  86 S8        29.90F
TOMAHAWK       LGT RAIN  60  58  93 CALM      29.95F
MEDFORD        CLOUDY    62  58  87 S9        29.93F
MERRILL        CLOUDY    62  60  94 S5        29.97F
$$

WIZ029-030-035-036-043>047-251400-
CENTRAL WISCONSIN

CITY           SKY/WX    TMP DP  RH WIND       PRES   REMARKS
WAUSAU         CLOUDY    62  59  90 SE6       29.95F
MOSINEE        CLOUDY    61  61 100 S8        29.97
MARSHFIELD     CLOUDY    63  58  83 S12       29.92F
STEVENS POINT  CLOUDY    60  56  89 S8        29.99F
WAUPACA        CLOUDY    64  60  86 S5        29.99F
WAUTOMA        NOT AVBL
WISC RAPIDS    CLOUDY    62  58  86 S8        29.98F
CAMP DOUGLAS   CLOUDY    63  61  94 S8        29.97S
$$

WIZ011>013-019>022-031-037>040-048>050-251400-
NORTHEAST WISCONSIN

CITY           SKY/WX    TMP DP  RH WIND       PRES   REMARKS
ANTIGO         LGT RAIN  60  58  94 SW9       30.00R
STURGEON BAY   CLOUDY    64  54  68 SW10G17   29.99F
GREEN BAY      PTSUNNY   67  56  67 SW13      29.99F
MANITOWOC      NOT AVBL
APPLETON       PTSUNNY   63  55  77 SW10      30.01F
CLINTONVILLE   CLOUDY    61  55  82 S8        29.97F
OSHKOSH        CLOUDY    63  54  72 SW10      30.00F
$$

WIZ032>034-041-042-053>061-251400-
SOUTHWEST WISCONSIN

CITY           SKY/WX    TMP DP  RH WIND       PRES   REMARKS
LA CROSSE      CLOUDY    65  61  87 S20G30    29.84F
SPARTA         RAIN      64  56  76 S10G18    29.94F
VIROQUA        CLOUDY    61  61  99 S9        29.98F
BOSCOBEL       CLOUDY    64  59  83 S3        29.98F
PRAIRIE DU CHI CLOUDY    65  56  72 SE9       29.98F
PLATTEVILLE    FAIR      62  59  90 S8        30.05R
$$

WIZ056-057-062-063-064-067-068-251400-
SOUTH CENTRAL WISCONSIN

CITY           SKY/WX    TMP DP  RH WIND       PRES   REMARKS
BARABOO/DELLS  CLOUDY    64  54  70 SW14      30.01F
LONE ROCK      NOT AVBL
WATERTOWN      CLOUDY    62  53  72 SW9       30.03F
MADISON        CLOUDY    65  55  70 SW8       30.03F
MIDDLETON      FAIR      64  54  69 SW7       30.03F
MONROE         LGT RAIN  59  55  88 S13       30.02F
JANESVILLE     CLOUDY    63  52  67 S8        30.05F
$$

WIZ051-052-058>065-066-070>072-251400-
SOUTHEAST WISCONSIN

CITY           SKY/WX    TMP DP  RH WIND       PRES   REMARKS
MILWAUKEE      CLOUDY    63  50  62 SW10      30.04F
WAUKESHA       MOSUNNY   61  50  67 SW6       30.06F
MILWAUKEE/TIMM MOSUNNY   63  48  59 SW9       30.06F
RACINE         CLOUDY    63  50  62 SW12      30.07F
BURLINGTON     CLOUDY    58  53  84 CALM      30.07S
KENOSHA        CLOUDY    63  52  67 SW6       30.07F
FOND DU LAC    LGT RAIN  62  53  72 SW3       30.02F
SHEBOYGAN      CLOUDY    64  53  67 SW8       30.02F
WEST BEND      CLOUDY    61  50  67 SW7       30.05R
JUNEAU         CLOUDY    60  50  69 S5        30.04S
$$

LSZ147-162-251400-
LAKE SUPERIOR

STATION/POSITION TIME  TEMP    WIND        PRES    WAVE
                       AIR SEA DIR/SP/G            HT/PER
                 (UTC) (F)     (DEG/KT/KT) (MB)    (FT/S)
$$

LMZ867-665-643>646-251400-
LAKE MICHIGAN

STATION/POSITION TIME  TEMP    WIND        PRES    WAVE
                       AIR SEA DIR/SP/G            HT/PER
                 (UTC) (F)     (DEG/KT/KT) (MB)    (FT/S)
$$

TC  - TEMPERATURE IN CELSIUS
VSB - VISIBILITY IN STATUTE MILES
WCI - WIND CHILL INDEX
HX  - HEAT INDEX




USA.gov is the U.S. government's official web portal to all federal, state and local government web resources and services.